SCP
0 0 0 0 0 0 0 0 0 0 0 -0 -0 -0 -0 -0 -0 0 0 0 -0 -0 0 0 0 -0 -0 -0 -0 0 -0 0 0 0 0 0 0 0 0 0 0 0 0 -0 -0
0 0 0 0 0 0 0 0 0 0 0 -0 -0 -0 -0 -0 0 -0 -0 -0 -0 -0 0 0 -0 -0 -0 -0 0 0 0 0 0 0 0 0 0 0 0 0 0 0 -0 -0 -0
0 0 0 0 0 0 0 0 0 0 0 0 -0 -0 -0 0 0 0 -0 -0 0 -0 -0 0 0 -0 0 0 0 0 0 -0 0 0 0 0 0 0 0 1 1 0 0 0 0
0 0 0 0 0 0 0 0 0 0 0 0 0 -0 -0 0 0 0 0 0 0 0 -0 0 0 -0 -0 -0 0 0 0 0 0 0 0 0 0 0 0 0 0 0 -0 0 0
0 0 0 0 0 0 0 0 0 0 0 0 0 0 0 0 0 0 0 0 -0 0 0 -0 -0 0 -0 0 0 0 -0 0 0 0 0 0 0 0 0 0 0 0 0 0 0
0 0 0 0 0 0 0 0 0 0 0 0 0 0 0 0 0 0 0 0 0 -0 0 -0 -0 0 0 0 -0 -0 -0 -0 0 0 0 0 0 0 0 0 -0 -0 0 0 0
0 0 0 0 0 0 0 0 0 0 0 0 0 0 0 0 0 0 0 0 0 -0 -0 0 0 -0 -0 -0 -0 -0 0 0 0 0 0 0 0 0 -0 -0 -0 0 0 0 0
0 0 0 0 0 0 0 0 0 0 0 0 0 0 0 0 0 0 0 0 0 0 0 0 0 0 -0 -0 -0 -0 -0 0 0 0 0 0 0 0 -0 -0 -0 0 0 0 0
0 0 0 0 0 0 0 0 0 0 0 0 0 0 0 0 0 0 0 0 0 0 0 0 0 0 0 -0 -0 -0 -0 -0 0 0 0 0 0 0 -0 -0 0 0 0 0 0
0 0 0 0 0 0 0 0 0 0 0 0 0 0 0 0 0 0 0 0 0 0 0 0 0 0 0 0 -0 -0 -0 0 -0 0 0 0 -0 -0 -0 -0 0 0 0 -0 0
0 0 0 0 0 0 0 0 0 0 0 0 0 0 0 0 0 0 0 0 0 0 0 0 0 -0 0 -0 -0 -0 0 0 -0 -0 0 0 0 0 0 -0 -0 -0 -0 -0 -0
0 0 0 0 0 0 0 0 0 0 0 0 0 0 0 0 0 0 0 0 0 0 0 0 -0 0 0 0 -0 -0 -0 -0 0 -0 -0 0 0 0 0 -0 -0 -0 -0 -0 -0
0 0 0 0 0 0 0 0 0 0 0 0 0 0 0 0 0 0 0 0 0 0 0 -0 -0 0 -0 0 0 0 0 0 0 0 0 0 0 0 0 0 -0 -0 0 0 0
0 0 0 0 0 0 0 0 0 0 0 0 0 0 0 0 0 0 0 0 0 0 0 -0 0 0 0 0 0 0 0 0 0 0 0 0 0 -0 -0 -0 -0 -0 -0 0 -0
0 0 0 0 0 0 0 0 0 0 0 0 0 0 0 0 0 0 0 0 0 0 0 0 0 0 0 0 0 0 0 0 0 0 0 0 -0 -0 0 0 0 -0 0 -0 0
0 0 0 0 0 0 0 0 0 0 0 0 0 0 0 0 0 0 0 0 0 0 0 0 0 0 0 0 0 0 0 0 0 0 0 0 -0 0 0 0 0 0 0 0 -0
-0 0 0 0 0 0 0 0 0 0 0 0 0 0 0 0 0 0 0 0 0 -0 -0 -0 0 0 0 0 0 0 0 0 0 0 0 0 0 0 0 0 0 0 0 0 -0
-0 0 0 0 0 0 0 0 0 0 0 0 0 0 0 0 0 0 0 0 0 0 0 -0 0 0 0 0 0 0 0 0 0 0 0 0 0 0 0 0 0 -0 -0 0 0
0 0 0 0 0 0 0 0 0 0 0 0 0 0 0 0 0 0 0 0 0 0 0 0 0 0 0 0 0 0 0 0 0 0 0 0 0 0 0 0 -0 0 0 0 0
0 0 0 0 0 0 0 0 0 0 0 0 0 0 0 0 0 0 0 0 -0 -0 0 0 0 0 0 0 0 0 0 0 0 0 0 0 0 0 0 0 0 0 0 0 0
0 0 0 0 0 0 0 0 0 0 0 0 0 0 0 0 0 0 0 0 -0 -0 0 0 0 0 0 0 0 0 0 0 0 0 0 0 0 0 0 -0 0 0 0 0 0
0 0 0 0 0 0 0 -0 -0 0 0 0 0 0 0 0 0 0 0 0 -0 0 0 0 0 0 0 0 0 0 0 0 0 0 0 0 0 0 0 0 0 0 0 0 0
0 0 0 0 0 0 0 0 -0 0 0 0 0 0 0 0 0 0 0 0 0 0 0 0 0 0 0 0 0 0 0 0 0 0 0 0 0 0 0 0 0 0 0 0 0
0 0 0 0 0 0 0 0 0 0 0 0 0 0 0 0 0 0 0 0 0 0 0 0 0 0 0 0 0 0 0 0 0 0 0 0 0 0 0 1 0 1 1 1 1
0 0 0 0 0 0 0 0 0 0 0 0 0 0 0 0 0 0 0 0 0 0 0 0 0 0 0 0 0 0 0 0 0 0 0 0 0 0 0 1 1 1 0 0 0
0 0 0 0 0 0 0 0 0 0 0 0 0 0 0 0 0 0 0 0 0 0 0 0 0 0 0 0 0 0 0 0 0 0 0 0 0 0 0 0 0 0 0 0 0
0 0 0 0 0 0 0 0 0 0 0 0 0 0 0 0 0 0 0 0 0 0 0 0 0 0 0 0 0 0 0 0 0 0 0 0 0 0 0 0 0 0 0 0 0
Wind_Speed_500mb
25 23 21 21 20 18 17 16 16 15 15 14 15 16 20 18 18 21 24 10 11 10 11 20 24 30 25 9 5 2 4 4 1 3 5 13 7 10 13 25 9 8 14 33 49
25 25 23 21 21 19 17 17 15 14 15 14 14 17 18 17 18 19 19 15 15 11 13 20 27 30 9 4 4 3 2 5 1 7 4 12 6 18 10 19 12 28 36 46 50
24 26 25 23 21 19 18 16 15 14 15 14 15 15 15 12 9 4 9 19 19 11 11 17 17 18 4 1 6 7 6 6 1 11 5 14 10 6 18 9 13 36 48 47 47
25 26 26 24 21 18 17 16 14 14 14 14 14 14 12 6 7 10 16 21 19 12 8 5 6 10 3 5 5 7 20 17 8 12 11 13 18 8 3 9 19 46 49 47 45
24 26 26 25 22 18 16 15 14 13 14 15 14 13 10 8 10 13 18 21 18 11 9 3 6 4 8 6 5 10 8 7 10 15 16 19 10 10 12 25 39 49 44 43 40
26 26 25 25 22 17 15 13 13 12 13 14 14 13 10 9 16 15 17 15 14 13 12 10 9 11 11 6 4 8 12 2 12 13 11 14 8 9 12 35 40 49 42 40 41
27 26 26 25 21 16 13 12 13 12 12 12 14 15 17 25 15 21 15 13 12 15 14 8 10 5 7 5 11 9 1 3 10 13 7 11 8 5 34 37 41 39 41 39 39
28 27 25 25 21 15 11 12 11 12 11 12 13 15 15 9 27 18 12 10 12 15 11 7 10 8 2 11 8 5 3 6 3 15 1 9 6 14 39 42 40 38 38 39 43
29 27 26 24 20 13 8 10 10 10 10 10 12 11 13 7 15 18 18 10 7 13 13 6 4 6 4 4 5 10 3 7 7 20 13 16 8 10 36 37 38 40 39 39 36
30 28 26 23 18 10 7 7 9 10 11 10 15 9 13 8 14 19 22 10 8 16 14 5 6 1 2 8 4 3 7 6 12 5 12 17 23 9 29 35 35 36 38 38 37
31 29 26 22 15 7 9 6 4 7 19 15 6 6 0 4 9 17 18 12 7 9 14 5 5 5 6 2 6 6 7 12 11 9 16 20 17 5 18 30 30 35 38 39 41
34 30 27 21 12 9 12 6 5 0 12 26 40 35 31 18 5 19 19 10 8 12 10 8 10 3 5 6 11 9 7 1 5 9 12 4 9 9 3 22 40 38 38 41 26
36 30 26 18 9 9 14 15 6 10 7 10 20 26 25 12 8 20 27 17 6 13 15 21 9 9 5 5 9 8 4 1 6 11 12 2 4 8 2 5 19 27 35 37 21
40 32 24 15 5 10 13 17 11 9 5 7 11 9 19 13 6 18 32 16 6 18 15 10 1 1 3 8 7 2 5 3 7 7 3 5 7 8 9 14 5 16 28 35 27
43 34 23 10 5 16 17 8 4 12 5 8 8 11 22 15 13 14 34 26 12 13 14 12 9 5 13 6 6 5 7 5 4 7 7 5 6 5 7 10 10 15 14 13 18
42 38 21 14 20 18 19 7 14 5 8 8 10 15 15 6 5 13 16 19 10 9 5 9 3 5 5 6 3 14 7 8 5 1 4 5 7 4 0 3 6 9 12 11 21
43 31 17 17 19 28 10 23 5 7 2 11 8 14 17 11 8 11 19 15 17 22 17 8 21 8 7 11 9 6 5 6 5 6 3 1 7 6 2 7 7 10 3 11 18
39 20 12 20 28 30 23 6 7 3 8 3 7 13 22 15 8 5 14 15 7 10 15 19 20 15 13 5 4 7 9 8 7 7 2 3 6 2 3 3 3 2 3 10 18
26 11 6 29 39 24 15 8 6 7 4 4 7 23 13 11 6 7 12 23 17 14 12 15 10 6 6 3 4 10 8 5 10 2 4 1 6 16 12 7 4 5 10 9 11
19 3 12 35 43 21 7 8 6 6 8 2 11 11 28 17 16 21 15 15 17 22 10 10 4 5 8 6 18 6 16 6 2 7 6 5 7 8 7 13 10 10 16 14 12
4 4 8 33 38 7 13 10 8 11 8 5 2 9 14 15 22 15 22 8 31 21 13 10 3 7 6 5 8 10 7 11 8 4 5 5 5 2 13 16 10 12 19 16 11
1 4 14 44 11 2 11 9 3 8 8 17 5 17 17 20 15 16 23 15 29 34 20 9 4 4 6 4 1 3 6 7 5 9 1 4 4 7 13 11 6 10 26 13 12
4 6 29 4 9 6 3 7 10 14 12 8 7 16 10 16 12 14 16 9 38 24 25 20 6 8 11 7 6 5 6 6 11 4 10 7 2 8 11 12 12 13 24 25 16
1 5 7 10 6 5 8 7 8 9 20 19 10 11 11 12 8 18 14 7 22 18 17 23 7 5 14 3 5 10 8 4 2 6 7 11 5 8 16 15 7 17 25 27 27
2 1 3 9 11 7 1 3 19 15 11 11 7 20 13 10 10 10 9 12 13 24 11 8 7 7 10 7 7 7 8 6 6 1 10 7 5 11 12 13 19 27 34 37 31
3 4 3 1 5 12 11 6 10 9 10 5 9 7 22 15 20 19 18 11 9 7 10 3 8 13 9 7 11 10 8 7 7 4 4 5 6 8 18 26 29 27 30 35 32
5 4 3 4 6 7 7 11 11 7 17 31 25 16 13 26 11 14 18 25 23 21 11 8 15 8 9 6 5 6 6 4 1 1 4 11 9 22 21 26 24 23 27 27 23
Wind_Direction_500mb
344 340 333 320 307 295 287 284 285 282 280 274 277 276 279 282 284 275 268 229 217 240 319 333 345 337 344 34 124 13 340 326 42 171 314 138 112 122 87 125 79 25 135 153 158
343 340 336 326 311 296 284 279 278 279 278 277 277 279 286 292 297 284 259 216 197 233 310 324 332 334 13 48 127 143 265 245 139 188 240 129 139 141 128 136 79 82 114 144 156
344 340 337 331 316 300 285 277 275 276 275 276 277 277 286 307 327 127 174 192 201 217 285 304 322 322 2 154 165 163 239 322 6 199 152 143 113 131 144 175 174 150 143 152 160
343 339 337 332 322 305 287 275 269 269 272 272 272 276 280 280 163 106 130 149 169 191 260 299 322 319 318 320 213 235 234 254 307 160 127 132 130 109 71 64 125 152 152 156 167
343 339 336 331 324 309 287 274 262 262 267 272 272 271 269 243 219 133 111 134 154 175 218 273 272 310 302 279 253 243 277 179 251 139 124 128 124 114 79 114 130 148 160 165 171
342 339 335 331 323 310 287 267 259 254 258 267 271 267 250 238 195 174 144 135 151 185 215 209 227 282 271 257 278 301 297 106 157 151 149 140 131 155 125 135 140 154 170 178 179
341 338 333 329 321 308 284 261 254 252 256 265 271 271 255 239 184 165 167 155 166 189 223 229 281 258 314 282 331 320 279 137 142 188 156 148 155 171 156 153 155 168 175 190 192
342 336 333 328 320 304 275 257 245 251 254 263 271 277 252 212 220 203 193 168 172 180 206 247 301 327 303 312 27 35 69 223 132 166 174 203 288 161 164 163 169 178 186 195 207
341 336 331 327 317 299 266 244 243 245 251 255 267 260 257 230 219 214 194 166 172 174 185 237 326 50 355 35 103 31 326 285 284 202 144 213 295 135 176 180 177 187 194 200 208
340 337 332 328 318 290 244 223 241 244 245 248 248 276 256 151 168 183 189 195 159 163 133 179 73 115 96 25 140 290 321 252 256 174 199 194 252 106 183 194 195 196 201 205 210
340 337 334 327 314 262 212 168 222 254 225 211 203 248 301 21 192 185 188 183 153 172 181 64 220 247 341 313 328 288 261 265 265 220 194 228 272 337 205 206 207 209 216 215 215
337 336 335 327 309 231 202 186 204 234 300 248 245 258 258 290 301 176 181 164 170 170 140 177 233 120 171 243 248 253 256 285 37 120 207 159 248 307 252 229 218 215 225 226 214
334 333 335 327 298 225 205 198 203 304 278 274 228 243 246 239 223 197 181 163 160 163 177 210 137 209 184 226 276 202 255 124 118 117 64 96 240 299 22 339 241 233 242 248 228
333 329 331 322 249 195 190 200 246 261 295 200 210 222 188 176 246 191 188 187 183 182 166 217 206 174 27 274 253 154 249 94 140 188 150 314 294 271 358 341 229 255 253 247 230
329 325 321 273 226 177 167 173 179 158 220 129 156 175 169 183 137 175 173 186 205 169 189 168 167 229 330 214 212 74 52 25 62 99 173 32 245 291 18 53 32 2 328 253 201
325 320 305 251 210 173 158 166 146 223 236 164 143 161 157 205 143 130 168 171 154 144 179 194 169 252 239 226 116 141 99 71 74 115 167 37 281 230 155 55 302 14 20 91 134
324 315 280 220 188 180 175 149 179 239 333 162 168 168 170 159 168 152 169 151 177 172 190 219 253 260 212 219 101 154 174 264 249 205 15 6 237 332 321 28 297 331 340 145 119
326 308 256 192 174 180 166 194 212 259 247 71 138 144 185 160 170 130 149 168 85 147 168 191 218 204 187 232 195 182 244 237 253 209 44 151 236 65 353 324 294 320 94 156 143
326 300 194 174 168 169 170 201 236 216 329 356 142 171 172 182 165 166 187 190 184 185 172 184 230 202 47 126 243 153 200 48 119 85 245 70 252 262 245 202 222 97 109 141 135
331 226 158 171 175 169 200 227 246 233 316 284 204 197 190 169 172 191 180 183 195 199 196 172 184 79 111 96 60 236 128 165 167 182 228 193 268 263 249 222 194 148 129 97 87
333 161 179 174 173 182 209 230 271 271 225 335 333 192 186 166 184 172 194 185 195 173 195 161 249 118 160 23 153 149 173 67 106 338 253 250 219 201 281 268 219 124 121 105 98
114 159 143 145 173 236 217 213 274 277 269 284 250 229 191 164 166 191 201 240 178 150 173 169 111 82 61 41 192 2 109 176 223 179 115 300 233 17 304 283 226 109 124 119 124
29 96 165 145 204 202 221 258 252 274 263 221 239 219 193 165 172 198 203 185 159 154 161 175 202 151 134 176 171 93 76 96 99 113 179 233 236 18 33 95 85 122 121 121 114
229 145 163 236 247 229 203 268 254 276 265 240 239 179 167 195 214 178 167 149 192 166 148 151 126 209 206 151 120 147 119 128 287 212 155 240 272 33 22 29 65 84 106 115 113
263 215 186 189 215 179 154 282 288 290 244 219 221 223 183 154 168 173 156 134 104 141 111 188 149 129 77 116 101 105 136 165 228 343 249 7 220 28 18 45 75 94 99 96 82
354 344 301 176 149 170 186 236 255 266 242 250 231 358 215 181 182 178 161 171 164 158 135 95 124 132 66 76 113 109 76 98 72 113 278 193 118 59 93 99 85 79 83 78 70
335 318 319 151 157 189 208 224 262 357 254 247 279 294 250 228 212 127 139 129 137 148 134 127 144 156 136 208 179 167 18 331 139 192 262 207 136 141 117 97 83 83 77 73 60
Wind_Speed_850mb
25 23 21 21 20 18 17 16 16 15 15 14 15 16 20 18 18 21 24 10 11 10 11 20 24 30 25 9 5 2 4 4 1 3 5 13 7 10 13 25 9 8 14 33 49
25 25 23 21 21 19 17 17 15 14 15 14 14 17 18 17 18 19 19 15 15 11 13 20 27 30 9 4 4 3 2 5 1 7 4 12 6 18 10 19 12 28 36 46 50
24 26 25 23 21 19 18 16 15 14 15 14 15 15 15 12 9 4 9 19 19 11 11 17 17 18 4 1 6 7 6 6 1 11 5 14 10 6 18 9 13 36 48 47 47
25 26 26 24 21 18 17 16 14 14 14 14 14 14 12 6 7 10 16 21 19 12 8 5 6 10 3 5 5 7 20 17 8 12 11 13 18 8 3 9 19 46 49 47 45
24 26 26 25 22 18 16 15 14 13 14 15 14 13 10 8 10 13 18 21 18 11 9 3 6 4 8 6 5 10 8 7 10 15 16 19 10 10 12 25 39 49 44 43 40
26 26 25 25 22 17 15 13 13 12 13 14 14 13 10 9 16 15 17 15 14 13 12 10 9 11 11 6 4 8 12 2 12 13 11 14 8 9 12 35 40 49 42 40 41
27 26 26 25 21 16 13 12 13 12 12 12 14 15 17 25 15 21 15 13 12 15 14 8 10 5 7 5 11 9 1 3 10 13 7 11 8 5 34 37 41 39 41 39 39
28 27 25 25 21 15 11 12 11 12 11 12 13 15 15 9 27 18 12 10 12 15 11 7 10 8 2 11 8 5 3 6 3 15 1 9 6 14 39 42 40 38 38 39 43
29 27 26 24 20 13 8 10 10 10 10 10 12 11 13 7 15 18 18 10 7 13 13 6 4 6 4 4 5 10 3 7 7 20 13 16 8 10 36 37 38 40 39 39 36
30 28 26 23 18 10 7 7 9 10 11 10 15 9 13 8 14 19 22 10 8 16 14 5 6 1 2 8 4 3 7 6 12 5 12 17 23 9 29 35 35 36 38 38 37
31 29 26 22 15 7 9 6 4 7 19 15 6 6 0 4 9 17 18 12 7 9 14 5 5 5 6 2 6 6 7 12 11 9 16 20 17 5 18 30 30 35 38 39 41
34 30 27 21 12 9 12 6 5 0 12 26 40 35 31 18 5 19 19 10 8 12 10 8 10 3 5 6 11 9 7 1 5 9 12 4 9 9 3 22 40 38 38 41 26
36 30 26 18 9 9 14 15 6 10 7 10 20 26 25 12 8 20 27 17 6 13 15 21 9 9 5 5 9 8 4 1 6 11 12 2 4 8 2 5 19 27 35 37 21
40 32 24 15 5 10 13 17 11 9 5 7 11 9 19 13 6 18 32 16 6 18 15 10 1 1 3 8 7 2 5 3 7 7 3 5 7 8 9 14 5 16 28 35 27
43 34 23 10 5 16 17 8 4 12 5 8 8 11 22 15 13 14 34 26 12 13 14 12 9 5 13 6 6 5 7 5 4 7 7 5 6 5 7 10 10 15 14 13 18
42 38 21 14 20 18 19 7 14 5 8 8 10 15 15 6 5 13 16 19 10 9 5 9 3 5 5 6 3 14 7 8 5 1 4 5 7 4 0 3 6 9 12 11 21
43 31 17 17 19 28 10 23 5 7 2 11 8 14 17 11 8 11 19 15 17 22 17 8 21 8 7 11 9 6 5 6 5 6 3 1 7 6 2 7 7 10 3 11 18
39 20 12 20 28 30 23 6 7 3 8 3 7 13 22 15 8 5 14 15 7 10 15 19 20 15 13 5 4 7 9 8 7 7 2 3 6 2 3 3 3 2 3 10 18
26 11 6 29 39 24 15 8 6 7 4 4 7 23 13 11 6 7 12 23 17 14 12 15 10 6 6 3 4 10 8 5 10 2 4 1 6 16 12 7 4 5 10 9 11
19 3 12 35 43 21 7 8 6 6 8 2 11 11 28 17 16 21 15 15 17 22 10 10 4 5 8 6 18 6 16 6 2 7 6 5 7 8 7 13 10 10 16 14 12
4 4 8 33 38 7 13 10 8 11 8 5 2 9 14 15 22 15 22 8 31 21 13 10 3 7 6 5 8 10 7 11 8 4 5 5 5 2 13 16 10 12 19 16 11
1 4 14 44 11 2 11 9 3 8 8 17 5 17 17 20 15 16 23 15 29 34 20 9 4 4 6 4 1 3 6 7 5 9 1 4 4 7 13 11 6 10 26 13 12
4 6 29 4 9 6 3 7 10 14 12 8 7 16 10 16 12 14 16 9 38 24 25 20 6 8 11 7 6 5 6 6 11 4 10 7 2 8 11 12 12 13 24 25 16
1 5 7 10 6 5 8 7 8 9 20 19 10 11 11 12 8 18 14 7 22 18 17 23 7 5 14 3 5 10 8 4 2 6 7 11 5 8 16 15 7 17 25 27 27
2 1 3 9 11 7 1 3 19 15 11 11 7 20 13 10 10 10 9 12 13 24 11 8 7 7 10 7 7 7 8 6 6 1 10 7 5 11 12 13 19 27 34 37 31
3 4 3 1 5 12 11 6 10 9 10 5 9 7 22 15 20 19 18 11 9 7 10 3 8 13 9 7 11 10 8 7 7 4 4 5 6 8 18 26 29 27 30 35 32
5 4 3 4 6 7 7 11 11 7 17 31 25 16 13 26 11 14 18 25 23 21 11 8 15 8 9 6 5 6 6 4 1 1 4 11 9 22 21 26 24 23 27 27 23
Wind_Direction_850mb
344 340 333 320 307 295 287 284 285 282 280 274 277 276 279 282 284 275 268 229 217 240 319 333 345 337 344 34 124 13 340 326 42 171 314 138 112 122 87 125 79 25 135 153 158
343 340 336 326 311 296 284 279 278 279 278 277 277 279 286 292 297 284 259 216 197 233 310 324 332 334 13 48 127 143 265 245 139 188 240 129 139 141 128 136 79 82 114 144 156
344 340 337 331 316 300 285 277 275 276 275 276 277 277 286 307 327 127 174 192 201 217 285 304 322 322 2 154 165 163 239 322 6 199 152 143 113 131 144 175 174 150 143 152 160
343 339 337 332 322 305 287 275 269 269 272 272 272 276 280 280 163 106 130 149 169 191 260 299 322 319 318 320 213 235 234 254 307 160 127 132 130 109 71 64 125 152 152 156 167
343 339 336 331 324 309 287 274 262 262 267 272 272 271 269 243 219 133 111 134 154 175 218 273 272 310 302 279 253 243 277 179 251 139 124 128 124 114 79 114 130 148 160 165 171
342 339 335 331 323 310 287 267 259 254 258 267 271 267 250 238 195 174 144 135 151 185 215 209 227 282 271 257 278 301 297 106 157 151 149 140 131 155 125 135 140 154 170 178 179
341 338 333 329 321 308 284 261 254 252 256 265 271 271 255 239 184 165 167 155 166 189 223 229 281 258 314 282 331 320 279 137 142 188 156 148 155 171 156 153 155 168 175 190 192
342 336 333 328 320 304 275 257 245 251 254 263 271 277 252 212 220 203 193 168 172 180 206 247 301 327 303 312 27 35 69 223 132 166 174 203 288 161 164 163 169 178 186 195 207
341 336 331 327 317 299 266 244 243 245 251 255 267 260 257 230 219 214 194 166 172 174 185 237 326 50 355 35 103 31 326 285 284 202 144 213 295 135 176 180 177 187 194 200 208
340 337 332 328 318 290 244 223 241 244 245 248 248 276 256 151 168 183 189 195 159 163 133 179 73 115 96 25 140 290 321 252 256 174 199 194 252 106 183 194 195 196 201 205 210
340 337 334 327 314 262 212 168 222 254 225 211 203 248 301 21 192 185 188 183 153 172 181 64 220 247 341 313 328 288 261 265 265 220 194 228 272 337 205 206 207 209 216 215 215
337 336 335 327 309 231 202 186 204 234 300 248 245 258 258 290 301 176 181 164 170 170 140 177 233 120 171 243 248 253 256 285 37 120 207 159 248 307 252 229 218 215 225 226 214
334 333 335 327 298 225 205 198 203 304 278 274 228 243 246 239 223 197 181 163 160 163 177 210 137 209 184 226 276 202 255 124 118 117 64 96 240 299 22 339 241 233 242 248 228
333 329 331 322 249 195 190 200 246 261 295 200 210 222 188 176 246 191 188 187 183 182 166 217 206 174 27 274 253 154 249 94 140 188 150 314 294 271 358 341 229 255 253 247 230
329 325 321 273 226 177 167 173 179 158 220 129 156 175 169 183 137 175 173 186 205 169 189 168 167 229 330 214 212 74 52 25 62 99 173 32 245 291 18 53 32 2 328 253 201
325 320 305 251 210 173 158 166 146 223 236 164 143 161 157 205 143 130 168 171 154 144 179 194 169 252 239 226 116 141 99 71 74 115 167 37 281 230 155 55 302 14 20 91 134
324 315 280 220 188 180 175 149 179 239 333 162 168 168 170 159 168 152 169 151 177 172 190 219 253 260 212 219 101 154 174 264 249 205 15 6 237 332 321 28 297 331 340 145 119
326 308 256 192 174 180 166 194 212 259 247 71 138 144 185 160 170 130 149 168 85 147 168 191 218 204 187 232 195 182 244 237 253 209 44 151 236 65 353 324 294 320 94 156 143
326 300 194 174 168 169 170 201 236 216 329 356 142 171 172 182 165 166 187 190 184 185 172 184 230 202 47 126 243 153 200 48 119 85 245 70 252 262 245 202 222 97 109 141 135
331 226 158 171 175 169 200 227 246 233 316 284 204 197 190 169 172 191 180 183 195 199 196 172 184 79 111 96 60 236 128 165 167 182 228 193 268 263 249 222 194 148 129 97 87
333 161 179 174 173 182 209 230 271 271 225 335 333 192 186 166 184 172 194 185 195 173 195 161 249 118 160 23 153 149 173 67 106 338 253 250 219 201 281 268 219 124 121 105 98
114 159 143 145 173 236 217 213 274 277 269 284 250 229 191 164 166 191 201 240 178 150 173 169 111 82 61 41 192 2 109 176 223 179 115 300 233 17 304 283 226 109 124 119 124
29 96 165 145 204 202 221 258 252 274 263 221 239 219 193 165 172 198 203 185 159 154 161 175 202 151 134 176 171 93 76 96 99 113 179 233 236 18 33 95 85 122 121 121 114
229 145 163 236 247 229 203 268 254 276 265 240 239 179 167 195 214 178 167 149 192 166 148 151 126 209 206 151 120 147 119 128 287 212 155 240 272 33 22 29 65 84 106 115 113
263 215 186 189 215 179 154 282 288 290 244 219 221 223 183 154 168 173 156 134 104 141 111 188 149 129 77 116 101 105 136 165 228 343 249 7 220 28 18 45 75 94 99 96 82
354 344 301 176 149 170 186 236 255 266 242 250 231 358 215 181 182 178 161 171 164 158 135 95 124 132 66 76 113 109 76 98 72 113 278 193 118 59 93 99 85 79 83 78 70
335 318 319 151 157 189 208 224 262 357 254 247 279 294 250 228 212 127 139 129 137 148 134 127 144 156 136 208 179 167 18 331 139 192 262 207 136 141 117 97 83 83 77 73 60